Regional Weather Roundup
Issued by NWS Jackson, KY

Home | Current Version | Previous Version | Text Only | Print | Product List | Glossary Off
Versions: 1 2 3 4 5 6 7 8 9 10 11 12 13 14 15 16 17 18 19 20 21 22 23 24 25 26 27 28 29 30 31 32 33 34 35 36 37 38 39 40 41 42 43 44 45 46 47 48 49 50

000
ASUS43 KJKL 231419
RWRJKL

EAST KENTUCKY HOURLY WEATHER ROUNDUP
NATIONAL WEATHER SERVICE JACKSON KY
1000 AM EDT SAT AUG 23 2014

NOTE: "FAIR" INDICATES FEW OR NO CLOUDS BELOW 12,000 FEET WITH
NO SIGNIFICANT WEATHER AND/OR OBSTRUCTIONS TO VISIBILITY.

* THESE REPORTS ARE NOT UNDER NWS QUALITY CONTROL AND MAY NOT
  REPORT WEATHER SUCH AS PRECIPITATION AND FOG.

KYZ079-080-083-085-087-088-110-112-115-119-120-231500
...EASTERN KENTUCKY...

CITY           SKY/WX    TMP DP  RH WIND       PRES   REMARKS
JACKSON        CLOUDY    73  70  90 CALM      30.06R FOG
LONDON         PTSUNNY   81  69  67 CALM      30.05S
SOMERSET*      SUNNY     79  73  83 CALM      30.05S
MONTICELLO*    HAZE      82  73  74 CALM      30.05S VSB 1
WILLIAMSBURG*  MOSUNNY   77  73  88 CALM      30.05S
MIDDLESBORO*   MOSUNNY   80  73  78 CALM      30.04F
HARLAN APT*    PTSUNNY   77  73  88 MISG      30.06S
BLACK MTN*       N/A     66  66 100 N5          N/A
PIKEVILLE APT* CLOUDY    72  72 100 SW3       30.04S
BIG SANDY*     CLOUDY    72  72  99 CALM      30.04R
MOREHEAD APT*  FOG       73  73 100 CALM      30.06R VSB 3/4
ASHLAND*       CLOUDY    73  70  88 CALM      29.99S
$$

KYZ035-036-041-042-044-050-067-078-099-231500
...CENTRAL KENTUCKY...

CITY           SKY/WX    TMP DP  RH WIND       PRES   REMARKS
MT STERLING*   CLOUDY    73  72  94 CALM      30.06R
FLEMING/MASON* CLOUDY    72  72 100 CALM      30.05R FOG
DANVILLE*      CLOUDY    75  72  88 CALM      30.05S
RICHMOND*      PTSUNNY   75  70  83 CALM      30.04R
LEXINGTON      PTSUNNY   80  73  79 N3        30.04R
FRANKFORT      MOSUNNY   79  71  76 N3        30.02R
$$

KYZ091>093-OHZ055-061-077-WVZ005-015-034-035-042-231500
...SOUTHERN OHIO/WEST VIRGINIA...

CITY           SKY/WX    TMP DP  RH WIND       PRES   REMARKS
COVINGTON      PTSUNNY   79  73  82 CALM      30.02S
COLUMBUS       MOSUNNY   80  70  71 NE5       30.01S
DAYTON         CLOUDY    76  72  87 CALM      30.04S FOG
WILMINGTON     MOSUNNY   77  73  87 NE5       30.02S
HUNTINGTON     FOG       72  72 100 N5        30.01R VSB 1/2
CHARLESTON     CLOUDY    73  72  96 S5        30.01F FOG
PINEVILLE*     CLOUDY    73  73  97 MISG      30.10S
BECKLEY        CLOUDY    70  68  93 NW3       30.09S FOG
BLUEFIELD      FOG       70  67  90 W6        30.11F VSB 1/4
$$

VAZ002-007-008-TNZ017-027-036-066-071-231500
...SOUTHWEST VIRGINIA/EAST TENNESSEE...

CITY           SKY/WX    TMP DP  RH WIND       PRES   REMARKS
WISE*          CLOUDY    73  72  94 NW3       30.12S FOG
JONESVILLE*      N/A     75  72  88 CALM      30.07F
ABINGDON*      CLOUDY    75  72  89 SW5       30.08F
BRISTOL        PTSUNNY   74  68  81 CALM      30.06S
KNOXVILLE      MOSUNNY   80  73  79 SW5       30.03S
OAK RIDGE      MOSUNNY   82  73  74 VRB3      30.04S
CROSSVILLE     PTSUNNY   76  71  85 CALM      30.10S
NASHVILLE      PTSUNNY   81  72  74 CALM      30.04S
$$

...KEY TO REMARKS...
VSB - VISIBILITY IN MILES
WCI - WIND CHILL INDEX
HX  - HEAT INDEX

$$


USA.gov is the U.S. government's official web portal to all federal, state and local government web resources and services.